Weather in Sola

Vanuatu     13°52′26″S   167°32′51″E
temp.,
°C
wind,
m/s
gust,
m/s
humid.,
%
clouds,
%
prec.,
mm/h
press.,
hPa
HPBL,
m
10 april, sat
sat1023:00+28nnw3474100 6.3 1010359
02:00+28nw226987 0.7 1008625
05:00+29n126878 0.7 1008618
08:00+29nne4569100 0.1 1010815
11:00+29n5670100 0.3 1009789
14:00+28n4675100 1.9 1007627
17:00+28nnw5678100 6.6 1008529
20:00+28nw3377100 5.8 1010176
11 april, sun
sun1123:00+27wnw3579100 10.0 1011458
02:00+26wnw4582100 2.1 1009463
05:00+27wnw1277100 2.6 1009422
08:00+27ne1275100 0.0 1011394
11:00+28n337480 0.0 1010536
14:00+28nne237571 2.9 1008263
17:00+28n23725 3.5 1009535
20:00+28nne127196 1.2 1011432
12 april, mon
mon1223:00+28n1171100 1.2 1010566
02:00+28ne1171100 0.0 1008660
05:00+28ese127161 0.0 1009668
08:00+29e2372100 0.0 1011689
11:00+28e247634 3.1 1010334
14:00+28e34736 2.0 1008660
17:00+29ese3372100 2.4 1008834
20:00+28ese4476100 0.7 1010535
13 april, tue
tue1323:00+28ese4575100 1.3 1010648
02:00+28ese5576100 0.3 1008833
05:00+28ese557797 1.4 1009593
08:00+28ese56755 0.4 1010744
11:00+29ese667623 0.6 1009864
14:00+29ese667379 0.1 1007934
17:00+29ese667668 1.3 1007807
20:00+29ese777816 2.2 1009840
14 april, wed
wed1423:00+29ese667792 3.6 1009791
02:00+28ese6678100 1.4 1008749
05:00+28ese557872 2.6 1008738
08:00+28ese567896 2.7 1009609
11:00+29ese677422 4.4 1009941
14:00+29ese667221 0.2 1007974
17:00+29se667129 0.8 10071035
20:00+29se667311 0.0 1009935